Zanesville, OH

1:45 AM EDT on May 21, 2018 (GMT -0400)
Zanesville Municipal

Weather History for KZZV - July, 2013

Change the Weather History Date:

Sunday, July 21, 2013

  Actual Average Record
Temperature  
Mean Temperature 76 °F 73 °F  
Max Temperature 83 °F 84 °F 105 °F (1934)
Min Temperature 68 °F 62 °F 45 °F (1970)
Degree Days  
Heating Degree Days 0 0  
Month to date heating degree days 0 0  
Since 1 June heating degree days 18 32  
Since 1 July heating degree days 0 0  
Cooling Degree Days 11 8  
Month to date cooling degree days 240 168  
Year to date cooling degree days 504 380  
Since 1 June cooling degree days 396 326  
Growing Degree Days 25 (Base 50)    
Moisture  
Dew Point 68 °F    
Average Humidity 80    
Maximum Humidity 97    
Minimum Humidity 63    
Precipitation  
Precipitation 0.00 in 0.11 in 2.03 in (1931)
Month to date precipitation 3.83 2.70  
Year to date precipitation 20.67 22.20  
Sea Level Pressure  
Sea Level Pressure 29.95 in    
Wind  
Wind Speed 1 mph (SSE)    
Max Wind Speed 7 mph    
Max Gust Speed 15 mph    
Visibility 6 miles    
Events Fog    
T = Trace of Precipitation, MM = Missing Value Source: NWS Daily Summary

Daily Weather History Graph

Daily Weather History Graph

Search for Another Location

Airport or City:

Astronomy

Jul. 21, 2013 Rise Set
Actual Time 6:16 AM EDT 8:50 PM EDT
Civil Twilight 5:45 AM EDT 9:22 PM EDT
Nautical Twilight 5:06 AM EDT 10:00 PM EDT
Astronomical Twilight 4:22 AM EDT 10:44 PM EDT
Moon 7:48 PM EDT 5:00 AM EDT
Length of Visible Light 15h 36m
Length of Day
14h 34m
Waxing Gibbous, 98% of the Moon is Illuminated
Jul 21
Waxing Gibbous
Jul 22
Full
Jul 29
Last Quarter
Aug 6
New
Aug 14
First Quarter

Hourly Weather History & Observations

Time (EDT) Temp. Heat Index Dew Point Humidity Pressure Visibility Wind Dir Wind Speed Gust Speed Precip Events Conditions
12:50 AM 69.8 °F - 66.2 °F 88% 29.94 in 2.5 mi Calm Calm - N/A   Partly Cloudy
12:53 AM 69.1 °F - 66.9 °F 93% 29.92 in 1.0 mi Calm Calm - N/A   Mist
1:01 AM 69.8 °F - 68.0 °F 94% 29.93 in 1.5 mi SSW 3.5 mph - N/A   Partly Cloudy
1:03 AM 69.8 °F - 66.2 °F 88% 29.93 in 4.0 mi South 4.6 mph - N/A   Partly Cloudy
1:53 AM 70.0 °F - 66.9 °F 90% 29.92 in 8.0 mi Calm Calm - N/A   Partly Cloudy
2:53 AM 69.1 °F - 66.0 °F 90% 29.91 in 1.8 mi Calm Calm - N/A   Partly Cloudy
2:58 AM 69.8 °F - 66.2 °F 88% 29.93 in 3.0 mi Calm Calm - N/A   Clear
3:31 AM 68.0 °F - 66.2 °F 94% 29.93 in 2.5 mi SSE 3.5 mph - N/A   Scattered Clouds
3:33 AM 69.8 °F - 66.2 °F 88% 29.93 in 1.5 mi SSE 4.6 mph - N/A   Mostly Cloudy
3:36 AM 69.8 °F - 66.2 °F 88% 29.93 in 0.8 mi SSE 4.6 mph - N/A   Mist
3:53 AM 68.0 °F - 66.0 °F 93% 29.91 in 0.5 mi South 3.5 mph - N/A Fog Fog
4:53 AM 69.1 °F - 66.9 °F 93% 29.92 in 0.2 mi Calm Calm - N/A Fog Fog
5:53 AM 69.1 °F - 66.9 °F 93% 29.94 in 0.2 mi Calm Calm - N/A Fog Fog
6:53 AM 69.1 °F - 66.9 °F 93% 29.95 in 0.2 mi Calm Calm - N/A Fog Fog
7:53 AM 70.0 °F - 68.0 °F 93% 29.95 in 0.5 mi Calm Calm - N/A Fog Fog
8:14 AM 69.8 °F - 68.0 °F 94% 29.97 in 1.5 mi Calm Calm - N/A   Overcast
8:17 AM 69.8 °F - 68.0 °F 94% 29.97 in 3.0 mi Calm Calm - N/A   Overcast
8:25 AM 69.8 °F - 68.0 °F 94% 29.97 in 1.8 mi Calm Calm - N/A   Overcast
8:34 AM 69.8 °F - 68.0 °F 94% 29.98 in 3.0 mi Calm Calm - N/A   Overcast
8:53 AM 71.1 °F - 68.0 °F 90% 29.96 in 6.0 mi Calm Calm - N/A   Overcast
9:27 AM 71.6 °F - 68.0 °F 88% 29.98 in 8.0 mi ENE 3.5 mph - N/A   Overcast
9:53 AM 73.0 °F - 69.1 °F 87% 29.96 in 6.0 mi Calm Calm - N/A   Overcast
10:48 AM 73.4 °F - 69.8 °F 88% 29.99 in 6.0 mi SSW 3.5 mph - N/A   Overcast
10:53 AM 73.9 °F - 69.1 °F 85% 29.97 in 6.0 mi Calm Calm - N/A   Haze
11:37 AM 75.2 °F - 69.8 °F 83% 29.99 in 8.0 mi Calm Calm - N/A   Overcast
11:53 AM 75.0 °F - 69.1 °F 82% 29.98 in 8.0 mi Calm Calm - N/A   Overcast
12:13 PM 75.2 °F - 69.8 °F 83% 30.00 in 8.0 mi Calm Calm - N/A   Overcast
12:53 PM 78.1 °F - 70.0 °F 76% 29.98 in 9.0 mi Calm Calm - N/A   Mostly Cloudy
1:45 PM 80.6 °F 83.9 °F 69.8 °F 70% 29.99 in 9.0 mi SSE 3.5 mph - N/A   Mostly Cloudy
1:53 PM 80.1 °F 82.9 °F 69.1 °F 69% 29.97 in 9.0 mi Variable 3.5 mph - N/A   Scattered Clouds
2:42 PM 80.6 °F 83.9 °F 69.8 °F 70% 29.98 in 10.0 mi South 3.5 mph - N/A   Mostly Cloudy
2:53 PM 81.0 °F 84.1 °F 69.1 °F 67% 29.95 in 10.0 mi SE 4.6 mph - N/A   Scattered Clouds
3:53 PM 81.0 °F 84.1 °F 69.1 °F 67% 29.94 in 10.0 mi South 4.6 mph - N/A   Partly Cloudy
4:53 PM 82.0 °F 84.9 °F 68.0 °F 62% 29.92 in 10.0 mi Calm Calm - N/A   Clear
5:53 PM 81.0 °F 83.8 °F 68.0 °F 65% 29.91 in 10.0 mi Calm Calm - N/A   Clear
6:53 PM 81.0 °F 83.8 °F 68.0 °F 65% 29.92 in 10.0 mi Calm Calm - N/A   Partly Cloudy
7:53 PM 80.1 °F 82.9 °F 69.1 °F 69% 29.91 in 10.0 mi North - - N/A   Clear
8:53 PM 77.0 °F - 70.0 °F 79% 29.91 in 8.0 mi Calm Calm - N/A   Clear
9:53 PM 75.0 °F - 71.1 °F 87% 29.93 in 8.0 mi Calm Calm - N/A   Clear
10:53 PM 73.9 °F - 70.0 °F 87% 29.95 in 7.0 mi Calm Calm - N/A   Clear
11:53 PM 73.0 °F - 68.0 °F 84% 29.94 in 10.0 mi NNE 3.5 mph - N/A   Clear